When you browse on this site, cookies collect data to enhance your experience and personalize the content and advertising you see.
Visit our Privacy Policy to learn more. By continuing to use the site, you agree to this use of cookies and data.
  • en France
  • Liste des pays
  • À 7 jours
  • Température de l'eau
  • Carte météo
  • Widgets météo
  • user-avatar
    Se connecter

    Météo par heure à Worcester

    Ce jour, 16 Septembre, Lundi

    Heure Température Précipitation Vent Pression Humidité
    00:00 +16°C° 0.1 mm 2 m/s 762 mmHg 93%
    01:00 +16°C° 0.1 mm 2 m/s 762 mmHg 93%
    02:00 +16°C° 0.1 mm 2 m/s 762 mmHg 93%
    03:00 +16°C° 0.1 mm 2 m/s 761 mmHg 92%
    04:00 +16°C° 0 mm 2 m/s 761 mmHg 92%
    05:00 +16°C° 0 mm 2 m/s 761 mmHg 93%
    06:00 +16°C° 0 mm 2 m/s 761 mmHg 93%
    07:00 +16°C° 0 mm 1 m/s 761 mmHg 92%
    08:00 +16°C° 0 mm 1 m/s 762 mmHg 92%
    09:00 +16°C° 0 mm 1 m/s 762 mmHg 92%
    10:00 +16°C° 0 mm 1 m/s 762 mmHg 91%
    11:00 +16°C° 0 mm 2 m/s 762 mmHg 90%
    12:00 +15°C° 0 mm 2 m/s 762 mmHg 89%
    13:00 +16°C° 0 mm 2 m/s 762 mmHg 87%
    14:00 +16°C° 0 mm 2 m/s 762 mmHg 86%
    15:00 +16°C° 0 mm 2 m/s 762 mmHg 84%
    16:00 +16°C° 0 mm 2 m/s 762 mmHg 84%
    17:00 +16°C° 0 mm 2 m/s 762 mmHg 83%
    18:00 +14°C° 0 mm 3 m/s 762 mmHg 83%
    19:00 +13°C° 0 mm 3 m/s 763 mmHg 84%
    20:00 +12°C° 0 mm 3 m/s 763 mmHg 85%
    21:00 +10°C° 0 mm 3 m/s 764 mmHg 86%
    22:00 +10°C° 0 mm 3 m/s 764 mmHg 88%
    23:00 +9°C° 0 mm 3 m/s 764 mmHg 89%

    Demain, 17 Septembre, Mardi

    Heure Température Précipitation Vent Pression Humidité
    00:00 +9°C° 0 mm 2 m/s 764 mmHg 91%
    01:00 +8°C° 0 mm 2 m/s 764 mmHg 92%
    02:00 +8°C° 0 mm 2 m/s 764 mmHg 92%
    03:00 +8°C° 0 mm 2 m/s 764 mmHg 93%
    04:00 +8°C° 0 mm 2 m/s 764 mmHg 93%
    05:00 +8°C° 0 mm 2 m/s 764 mmHg 93%
    06:00 +7°C° 0 mm 2 m/s 765 mmHg 93%
    07:00 +9°C° 0 mm 3 m/s 765 mmHg 87%
    08:00 +11°C° 0 mm 3 m/s 765 mmHg 80%
    09:00 +13°C° 0 mm 4 m/s 766 mmHg 74%
    10:00 +14°C° 0 mm 4 m/s 765 mmHg 70%
    11:00 +15°C° 0 mm 4 m/s 765 mmHg 65%
    12:00 +17°C° 0 mm 4 m/s 765 mmHg 61%
    13:00 +17°C° 0 mm 4 m/s 765 mmHg 60%
    14:00 +17°C° 0 mm 4 m/s 765 mmHg 59%
    15:00 +18°C° 0 mm 3 m/s 765 mmHg 58%
    16:00 +16°C° 0 mm 3 m/s 765 mmHg 64%
    17:00 +14°C° 0 mm 3 m/s 765 mmHg 69%
    18:00 +14°C° 0 mm 2 m/s 765 mmHg 75%
    19:00 +13°C° 0 mm 2 m/s 766 mmHg 78%
    20:00 +12°C° 0 mm 2 m/s 766 mmHg 82%
    21:00 +10°C° 0 mm 2 m/s 767 mmHg 85%
    22:00 +9°C° 0 mm 2 m/s 767 mmHg 86%
    23:00 +9°C° 0 mm 1 m/s 767 mmHg 87%

    Après-demain, 18 Septembre, Mercredi

    Heure Température Précipitation Vent Pression Humidité
    00:00 +9°C° 0 mm 1 m/s 767 mmHg 87%
    01:00 +9°C° 0 mm 1 m/s 767 mmHg 87%
    02:00 +7°C° 0 mm 0 m/s 767 mmHg 87%
    03:00 +7°C° 0 mm 0 m/s 767 mmHg 87%
    04:00 +7°C° 0 mm 0 m/s 767 mmHg 87%
    05:00 +7°C° 0 mm 0 m/s 767 mmHg 87%
    06:00 +7°C° 0 mm 0 m/s 767 mmHg 87%
    07:00 +8°C° 0 mm 0 m/s 768 mmHg 81%
    08:00 +11°C° 0 mm 1 m/s 768 mmHg 75%
    09:00 +13°C° 0 mm 1 m/s 768 mmHg 69%
    10:00 +15°C° 0 mm 1 m/s 768 mmHg 65%
    11:00 +16°C° 0 mm 1 m/s 768 mmHg 61%
    12:00 +18°C° 0 mm 1 m/s 768 mmHg 58%
    13:00 +19°C° 0 mm 1 m/s 767 mmHg 57%
    14:00 +19°C° 0 mm 1 m/s 767 mmHg 56%
    15:00 +20°C° 0 mm 1 m/s 767 mmHg 55%
    16:00 +19°C° 0 mm 1 m/s 767 mmHg 61%
    17:00 +18°C° 0 mm 1 m/s 767 mmHg 67%
    18:00 +15°C° 0 mm 1 m/s 767 mmHg 73%
    19:00 +14°C° 0 mm 2 m/s 767 mmHg 77%
    20:00 +13°C° 0 mm 2 m/s 768 mmHg 81%
    21:00 +12°C° 0 mm 2 m/s 768 mmHg 85%
    22:00 +12°C° 0 mm 2 m/s 768 mmHg 86%
    23:00 +10°C° 0 mm 2 m/s 768 mmHg 88%

    19 Septembre, Jeudi

    Heure Température Précipitation Vent Pression Humidité
    00:00 +11°C° 0 mm 1 m/s 768 mmHg 89%
    01:00 +11°C° 0 mm 1 m/s 768 mmHg 90%
    02:00 +10°C° 0 mm 1 m/s 768 mmHg 91%
    03:00 +10°C° 0 mm 1 m/s 768 mmHg 92%
    04:00 +10°C° 0 mm 1 m/s 768 mmHg 92%
    05:00 +10°C° 0 mm 1 m/s 768 mmHg 93%
    06:00 +10°C° 0 mm 1 m/s 768 mmHg 93%
    07:00 +12°C° 0 mm 1 m/s 768 mmHg 89%
    08:00 +13°C° 0 mm 1 m/s 768 mmHg 84%
    09:00 +15°C° 0 mm 1 m/s 769 mmHg 79%
    10:00 +16°C° 0 mm 1 m/s 769 mmHg 74%
    11:00 +19°C° 0 mm 1 m/s 769 mmHg 69%
    12:00 +20°C° 0 mm 1 m/s 769 mmHg 64%
    13:00 +21°C° 0 mm 1 m/s 769 mmHg 63%
    14:00 +21°C° 0 mm 1 m/s 768 mmHg 61%
    15:00 +22°C° 0 mm 1 m/s 768 mmHg 59%
    16:00 +20°C° 0 mm 1 m/s 768 mmHg 65%
    17:00 +19°C° 0 mm 1 m/s 768 mmHg 70%
    18:00 +18°C° 0 mm 1 m/s 768 mmHg 76%
    19:00 +16°C° 0 mm 1 m/s 768 mmHg 79%
    20:00 +15°C° 0 mm 1 m/s 768 mmHg 82%
    21:00 +15°C° 0 mm 1 m/s 768 mmHg 86%
    22:00 +14°C° 0 mm 1 m/s 768 mmHg 87%
    23:00 +14°C° 0 mm 1 m/s 768 mmHg 89%

    20 Septembre, Vendredi

    Heure Température Précipitation Vent Pression Humidité
    00:00 +13°C° 0 mm 1 m/s 768 mmHg 91%
    01:00 +13°C° 0 mm 1 m/s 768 mmHg 92%
    02:00 +12°C° 0 mm 1 m/s 768 mmHg 93%
    03:00 +12°C° 0 mm 1 m/s 767 mmHg 94%
    04:00 +12°C° 0 mm 1 m/s 767 mmHg 94%
    05:00 +11°C° 0 mm 1 m/s 767 mmHg 94%
    06:00 +11°C° 0 mm 1 m/s 766 mmHg 95%
    07:00 +13°C° 0 mm 2 m/s 766 mmHg 89%
    08:00 +14°C° 0 mm 2 m/s 766 mmHg 84%
    09:00 +16°C° 0 mm 3 m/s 766 mmHg 79%
    10:00 +17°C° 0 mm 3 m/s 766 mmHg 73%
    11:00 +18°C° 0 mm 3 m/s 766 mmHg 67%
    12:00 +19°C° 0 mm 4 m/s 765 mmHg 61%
    13:00 +20°C° 0 mm 4 m/s 765 mmHg 60%
    14:00 +20°C° 0 mm 4 m/s 764 mmHg 58%
    15:00 +20°C° 0 mm 4 m/s 763 mmHg 57%
    16:00 +19°C° 0 mm 4 m/s 762 mmHg 60%
    17:00 +17°C° 0 mm 4 m/s 762 mmHg 63%
    18:00 +15°C° 0 mm 4 m/s 761 mmHg 66%
    19:00 +14°C° 0 mm 4 m/s 761 mmHg 66%
    20:00 +12°C° 0 mm 4 m/s 761 mmHg 67%
    21:00 +11°C° 0 mm 4 m/s 761 mmHg 68%
    22:00 +11°C° 0 mm 4 m/s 761 mmHg 71%
    23:00 +10°C° 0 mm 3 m/s 760 mmHg 75%

    21 Septembre, Samedi

    Heure Température Précipitation Vent Pression Humidité
    00:00 +10°C° 0 mm 3 m/s 759 mmHg 78%
    01:00 +10°C° 0 mm 3 m/s 759 mmHg 77%
    02:00 +10°C° 0 mm 3 m/s 758 mmHg 76%
    03:00 +10°C° 0 mm 3 m/s 758 mmHg 75%
    04:00 +9°C° 0 mm 3 m/s 757 mmHg 74%
    05:00 +9°C° 0 mm 3 m/s 756 mmHg 74%
    06:00 +9°C° 0 mm 3 m/s 756 mmHg 73%
    07:00 +11°C° 0 mm 3 m/s 756 mmHg 71%
    08:00 +12°C° 0 mm 4 m/s 755 mmHg 68%
    09:00 +14°C° 0 mm 4 m/s 755 mmHg 65%
    10:00 +16°C° 0 mm 5 m/s 755 mmHg 63%
    11:00 +19°C° 0 mm 5 m/s 754 mmHg 62%
    12:00 +21°C° 0 mm 5 m/s 754 mmHg 60%
    13:00 +22°C° 0 mm 5 m/s 754 mmHg 61%
    14:00 +22°C° 0 mm 5 m/s 753 mmHg 63%
    15:00 +23°C° 0 mm 5 m/s 753 mmHg 64%
    16:00 +22°C° 0 mm 5 m/s 753 mmHg 69%
    17:00 +21°C° 0 mm 4 m/s 753 mmHg 75%
    18:00 +19°C° 0 mm 4 m/s 752 mmHg 80%
    19:00 +19°C° 0.2 mm 3 m/s 752 mmHg 83%
    20:00 +18°C° 0.2 mm 3 m/s 752 mmHg 86%
    21:00 +17°C° 0.2 mm 2 m/s 752 mmHg 89%
    22:00 +17°C° 0.2 mm 2 m/s 752 mmHg 90%
    23:00 +17°C° 0.2 mm 2 m/s 752 mmHg 92%
    Voir plus